This is the latest recevied weather packets stored in our database for station/object KB1QVF. If no packets are shown the sender has not sent any weather packets the latest 10 day(s).
| Time | Temp. | Humidity | Pressure | Rain* | Wind** | Luminosity | Snow |
|---|---|---|---|---|---|---|---|
| 1777597538 | 9.44° C | 95% | 1009.2 hPa | 0 mm | - | 0 W/m² | - |
| 1777597235 | 10° C | 95% | 1008.9 hPa | 0 mm | - | 0 W/m² | - |
| 1777596930 | 9.44° C | 95% | 1009 hPa | 0 mm | - | 0 W/m² | - |
| 1777596627 | 9.44° C | 95% | 1008.9 hPa | 0 mm | - | 0 W/m² | - |
| 1777596323 | 10° C | 94% | 1008.9 hPa | 0 mm | - | 0 W/m² | - |
| 1777596022 | 10° C | 94% | 1009 hPa | 0 mm | - | 0 W/m² | - |
| 1777595716 | 10° C | 93% | 1008.9 hPa | 0 mm | - | 0 W/m² | - |
| 1777595412 | 10° C | 93% | 1009 hPa | 0 mm | - | 0 W/m² | - |
| 1777595108 | 10° C | 92% | 1008.7 hPa | 0 mm | - | 0 W/m² | - |
| 1777594804 | 10° C | 92% | 1008.8 hPa | 0 mm | - | 0 W/m² | - |
| 1777594501 | 10° C | 92% | 1008.7 hPa | 0 mm | - | 0 W/m² | - |
| 1777594197 | 10.56° C | 91% | 1008.7 hPa | 0 mm | - | 0 W/m² | - |
| 1777593893 | 10.56° C | 91% | 1008.5 hPa | 0 mm | - | 0 W/m² | - |
| 1777593590 | 10.56° C | 91% | 1008.6 hPa | 0 mm | - | 0 W/m² | - |
| 1777593290 | 11.11° C | 90% | 1008.6 hPa | 0 mm | - | 1 W/m² | - |
| 1777592985 | 11.11° C | 90% | 1008.7 hPa | 0 mm | - | 2 W/m² | - |
| 1777592679 | 11.11° C | 89% | 1008.7 hPa | 0 mm | - | 3 W/m² | - |
| 1777592376 | 11.11° C | 89% | 1008.3 hPa | 0 mm | - | 4 W/m² | - |
| 1777592071 | 11.11° C | 89% | 1008.3 hPa | 0 mm | - | 3 W/m² | - |
| 1777591769 | 11.11° C | 89% | 1008.2 hPa | 0 mm | - | 6 W/m² | - |
| 1777591464 | 11.67° C | 88% | 1008.4 hPa | 0 mm | - | 8 W/m² | - |
| 1777591160 | 11.67° C | 88% | 1008.4 hPa | 0 mm | - | 15 W/m² | - |
| 1777590855 | 11.67° C | 87% | 1008.6 hPa | 0 mm | - | 22 W/m² | - |
| 1777590552 | 11.67° C | 87% | 1008.2 hPa | 0 mm | - | 22 W/m² | - |
| 1777590248 | 11.67° C | 88% | 1008.2 hPa | 0 mm | - | 16 W/m² | - |
* Rain latest hour (hover to see other rain measurements)
** Current wind speed in m/s (hover to see current wind gust speed)